EW0868 Weather Reports


Display with metric or nautical units.
time (UTC)temp
F
wind
direction
speed
MPH
gust
MPH
rain 1hr
in
rain 24hr
in
rain mn
in
humidity
%
barometer
mb
20260510043047 57 355 0.0 0.0 0.00 0.03 0.00 82 1016.7
20260510041600 58 338 0.0 0.0 0.00 0.03 0.00 81 1016.7
20260510040048 59 324 0.0 0.0 0.00 0.03 0.00 80 1016.4
20260510034546 60 313 0.0 0.0 0.00 0.03 0.00 80 1016.3
20260510033039 61 339 0.0 0.0 0.00 0.03 0.00 80 1016.1
20260510031536 62 278 0.0 1.0 0.00 0.03 0.00 80 1016.0
20260510030043 62 260 0.0 0.0 0.00 0.03 0.00 80 1015.9
20260510024542 62 257 0.0 0.0 0.00 0.03 0.00 82 1015.8
20260510023055 63 243 0.0 5.0 0.00 0.03 0.00 80 1015.9
20260510021548 63 360 1.0 6.0 0.00 0.03 0.00 80 1015.9
20260510020059 63 232 0.0 0.0 0.00 0.03 0.00 80 1016.1
20260510014611 64 222 0.0 10.0 0.00 0.03 0.00 80 1016.2
20260510013044 64 247 3.0 8.0 0.00 0.03 0.00 79 1016.3
20260510011541 64 239 6.0 9.0 0.00 0.03 0.00 80 1016.5
20260510010050 63 360 5.0 11.0 0.00 0.03 0.00 80 1016.7
20260510004548 64 360 5.0 9.0 0.00 0.03 0.00 79 1016.7
20260510003102 65 245 1.0 6.0 0.00 0.03 0.00 78 1016.7
20260510001559 65 249 3.0 7.0 0.00 0.03 0.00 76 1016.9
20260510000047 66 240 3.0 7.0 0.00 0.03 0.00 76 1017.0
20260509234538 67 223 1.0 8.0 0.00 0.03 0.00 76 1017.1
20260509233035 68 207 5.0 8.0 0.00 0.03 0.00 72 1017.4
20260509231609 69 188 4.0 10.0 0.00 0.03 0.00 72 1017.4
20260509230039 70 239 3.0 7.0 0.00 0.03 0.00 64 1017.6
20260509224553 70 230 0.0 3.0 0.00 0.03 0.00 60 1017.8
20260509223047 70 207 0.0 1.0 0.00 0.03 0.00 60 1017.9
20260509221544 70 239 0.0 2.0 0.00 0.03 0.00 61 1018.1
20260509220052 70 248 0.0 3.0 0.00 0.03 0.00 62 1018.4
20260509214551 71 96 0.0 0.0 0.00 0.03 0.00 59 1018.5
20260509213042 69 213 0.0 1.0 0.00 0.03 0.00 65 1018.7
20260509211539 69 15 0.0 3.0 0.00 0.03 0.00 62 1019.0
20260509210107 68 107 0.0 5.0 0.00 0.03 0.00 65 1019.1
20260509204539 68 223 0.0 4.0 0.00 0.03 0.00 68 1019.3
20260509203036 67 233 0.0 0.0 0.00 0.03 0.00 70 1019.5
20260509201548 66 120 0.0 0.0 0.00 0.03 0.00 71 1019.6
20260509200100 65 254 0.0 5.0 0.00 0.03 0.00 72 1019.7
20260509194612 65 90 1.0 7.0 0.00 0.03 0.00 72 1019.8
20260509193105 65 321 0.0 7.0 0.00 0.03 0.00 74 1020.0
20260509191542 64 63 1.0 5.0 0.00 0.03 0.00 74 1020.1
20260509190049 64 100 0.0 2.0 0.00 0.03 0.00 76 1020.3
20260509184547 63 252 0.0 5.0 0.00 0.03 0.00 77 1020.4
20260509183039 62 360 0.0 3.0 0.00 0.03 0.00 79 1020.4
20260509181612 61 360 0.0 0.0 0.00 0.03 0.00 79 1020.6
20260509180042 61 234 0.0 0.0 0.00 0.03 0.00 81 1020.7
20260509174536 60 52 0.0 2.0 0.00 0.03 0.00 82 1020.7
20260509173054 58 264 0.0 0.0 0.00 0.03 0.00 83 1020.8
20260509171547 58 84 0.0 0.0 0.00 0.03 0.00 86 1020.9
20260509170052 57 82 0.0 0.0 0.00 0.03 0.00 87 1021.0
20260509164550 56 21 0.0 0.0 0.00 0.03 0.00 89 1021.0
20260509163044 55 21 0.0 3.0 0.00 0.03 0.00 90 1021.2
20260509161600 55 23 0.0 2.0 0.00 0.03 0.00 90 1021.0
20260509160047 54 16 0.0 0.0 0.00 0.03 0.00 90 1021.2
20260509154559 54 16 0.0 0.0 0.00 0.03 0.00 90 1021.3
20260509153035 54 16 0.0 0.0 0.00 0.03 0.00 90 1021.3
20260509151609 53 16 0.0 1.0 0.00 0.03 0.00 90 1021.4
20260509150041 53 16 0.0 0.0 0.00 0.03 0.00 91 1021.5
20260509144553 52 16 0.0 0.0 0.00 0.03 0.00 91 1021.6
20260509143046 52 15 0.0 0.0 0.00 0.03 0.00 91 1021.5
20260509141542 52 15 1.0 4.0 0.00 0.03 0.00 91 1021.6
20260509140110 52 59 0.0 0.0 0.00 0.03 0.00 91 1021.7
20260509134546 52 59 0.0 1.0 0.00 0.03 0.00 91 1021.7
20260509133039 52 96 0.0 0.0 0.00 0.03 0.00 91 1021.5
20260509131536 52 117 0.0 0.0 0.00 0.03 0.00 91 1021.5
20260509130042 52 117 0.0 0.0 0.00 0.03 0.00 91 1021.7
20260509124536 52 118 0.0 1.0 0.00 0.03 0.00 91 1021.7
20260509123053 52 130 0.0 0.0 0.00 0.03 0.00 91 1021.9
20260509121546 52 130 0.0 0.0 0.00 0.03 0.00 91 1022.1
20260509120038 52 130 0.0 0.0 0.00 0.03 0.00 91 1022.0
20260509114552 52 130 0.0 0.0 0.00 0.03 0.00 91 1022.2
20260509113049 52 130 0.0 0.0 0.00 0.03 0.00 91 1022.4
20260509111543 52 130 0.0 0.0 0.00 0.03 0.00 91 1022.4
20260509110051 52 130 0.0 0.0 0.00 0.03 0.00 91 1022.5
20260509104547 52 130 0.0 0.0 0.00 0.03 0.00 91 1022.5
20260509103059 52 130 0.0 0.0 0.00 0.03 0.00 91 1022.6
20260509101534 52 130 0.0 0.0 0.00 0.03 0.00 91 1022.5
20260509100042 52 130 0.0 0.0 0.00 0.03 0.00 91 1022.6
20260509094537 52 130 0.0 0.0 0.00 0.03 0.00 91 1022.6
20260509093034 52 130 0.0 0.0 0.00 0.03 0.00 91 1022.5
20260509091608 53 130 0.0 0.0 0.00 0.03 0.00 90 1022.4
20260509090038 53 130 0.0 0.0 0.00 0.03 0.00 91 1022.4
20260509084550 53 130 0.0 0.0 0.00 0.03 0.00 90 1022.6
20260509083043 53 130 0.0 0.0 0.00 0.03 0.00 90 1022.6
20260509081541 53 130 0.0 0.0 0.00 0.03 0.00 90 1022.7
20260509080107 53 130 0.0 0.0 0.00 0.03 0.00 90 1022.7
20260509074542 53 130 0.0 0.0 0.00 0.03 0.00 90 1022.8
20260509073036 53 130 0.0 0.0 0.01 0.03 0.00 90 1022.9
20260509071534 53 130 0.0 0.0 0.01 0.03 0.00 90 1022.8
20260509070042 54 130 0.0 0.0 0.01 0.03 0.00 90 1022.8
20260509064613 54 130 0.0 0.0 0.01 0.03 0.03 90 1022.8
20260509063050 54 130 0.0 0.0 0.00 0.02 0.02 90 1022.9
20260509061543 54 222 0.0 0.0 0.00 0.02 0.02 90 1022.8
20260509060114 54 222 0.0 0.0 0.00 0.02 0.02 89 1022.8
20260509054608 54 222 0.0 0.0 0.00 0.02 0.02 89 1022.8
20260509053040 54 225 0.0 0.0 0.01 0.02 0.02 89 1022.7
20260509051537 54 225 0.0 0.0 0.01 0.02 0.02 89 1022.7
20260509050046 54 225 0.0 0.0 0.02 0.02 0.02 89 1022.7
20260509044542 54 225 0.0 0.0 0.02 0.02 0.02 89 1022.7